Volver al catálogo

GGSE 2

ActivoNavegaciónLEO
NORAD 1244·PAYLOAD·🇺🇸 United States

Lanzado Mar 9, 1965 desde Vandenberg Space Force Base

Loading…

Próximos Pases (próximas 24 horas)

TLE

ActualizadoSource: Space-Track

Época: Sep 14, 2026, 06:17 UTC

1 01244U 65016B   26257.26212494  .00000024  00000-0  55346-4 0  9994
2 01244  70.0821 356.5680 0022462 325.6335  34.3318 13.96172421130492

Sigue GGSE 2 en tiempo real con AllMySat

Download on the App Store